Regional Weather Roundup
Issued by NWS Little Rock, AR

Home | Current Version | Previous Version | Text Only | Print | Product List | Glossary Off
Versions: 1 2 3 4 5 6 7 8 9 10 11 12 13 14 15 16 17 18 19 20 21 22 23 24 25 26 27 28 29 30 31 32 33 34 35 36 37 38 39 40 41 42 43 44 45 46 47 48 49 50

000
ASUS44 KLZK 292205
RWRLZK

WEATHER ROUNDUP FOR ARKANSAS
NATIONAL WEATHER SERVICE LITTLE ROCK AR
500 PM CDT MON JUN 29 2015

NOTE: "FAIR" INDICATES FEW OR NO CLOUDS BELOW 12,000 FEET WITH NO
SIGNIFICANT WEATHER AND/OR OBSTRUCTIONS TO VISIBILITY.

ARZ001-003-010-029-292300-
NORTHWEST ARKANSAS

CITY           SKY/WX    TMP DP  RH WIND       PRES   REMARKS
FAYETTEVILLE   SUNNY     84  63  49 W9        29.95F HX  85
FORT SMITH     SUNNY     92  65  40 N6        29.90F HX  94
HARRISON       MOSUNNY   85  66  53 VRB6      29.94F HX  87
BENTONVILLE    SUNNY     86  59  39 NW10      29.96S HX  85
ROGERS         SUNNY     84  64  50 N7        29.96F HX  85
SILOAM SPGS    MOSUNNY   86  63  45 NW5       29.96S HX  87
HIGHFILL       MOSUNNY   87  64  46 N9        29.95F HX  88
SPRINGDALE     MOSUNNY   86  63  45 W8        29.97S HX  87
$$

ARZ004-005-016-292300-
NORTH CENTRAL ARKANSAS

CITY           SKY/WX    TMP DP  RH WIND       PRES   REMARKS
BATESVILLE     SUNNY     90  64  43 W6        29.88F HX  91
FLIPPIN          N/A     90  61  37 NW7       29.89S HX  89
MTN HOME       SUNNY     86  62  44 VRB6      29.90F HX  86
$$

ARZ040-041-292300-
WEST CENTRAL ARKANSAS

CITY           SKY/WX    TMP DP  RH WIND       PRES   REMARKS
MENA           MOSUNNY   93  72  49 W7        29.94F HX 100
MOUNT IDA      PTSUNNY   89  74  60 CALM      29.90F HX  98
$$

ARZ009-017-025-026-028-292300-
NORTHEAST ARKANSAS

CITY           SKY/WX    TMP DP  RH WIND       PRES   REMARKS
JONESBORO      SUNNY     91  63  39 W8        29.86S HX  92
NEWPORT        SUNNY     92  63  38 NW12      29.88S HX  93
WALNUT RIDGE   MOSUNNY   90  63  40 W12G17    29.86S HX  90
BLYTHEVILLE    SUNNY     91  65  41 W9        29.85F HX  93
$$

ARZ022-023-033-042-044-292300-
CENTRAL ARKANSAS

CITY           SKY/WX    TMP DP  RH WIND       PRES   REMARKS
LITTLE ROCK    MOSUNNY   92  66  42 W8        29.88F HX  94
N LITTLE ROCK  MOSUNNY   90  71  53 W6        29.88F HX  96
JACKSONVILLE   SUNNY     92  69  47 W10       29.88F HX  96
SEARCY         SUNNY     91  69  48 W6        29.89S HX  96
HOT SPRINGS    PTSUNNY   89  70  53 W3        29.91F HX  94
RUSSELLVILLE   SUNNY     90  63  40 W9        29.89F HX  91
CLINTON        FAIR      90  68  48 NW3       29.90S HX  93
$$

ARZ036-292300-
EAST ARKANSAS

CITY           SKY/WX    TMP DP  RH WIND       PRES   REMARKS
WEST MEMPHIS   MOSUNNY   88  72  58 W7        29.87S HX  94
$$

ARZ050-053-066-070-073-292300-
SOUTHWEST ARKANSAS

CITY           SKY/WX    TMP DP  RH WIND       PRES   REMARKS
ARKADELPHIA    FAIR      92  76  59 SW10      29.90F HX 104
CAMDEN         SUNNY     93  70  46 E6        29.91F HX  99
TEXARKANA      MOSUNNY   92  72  51 W8        29.92F HX  99
EL DORADO      SUNNY     91  70  49 SW7       29.92F HX  96
DE QUEEN       SUNNY     91  71  51 W7        29.89F HX  97
$$

ARZ056-057-069-292300-
SOUTHEAST ARKANSAS

CITY           SKY/WX    TMP DP  RH WIND       PRES   REMARKS
PINE BLUFF     SUNNY     90  72  55 W9        29.90F HX  97
STUTTGART      MOSUNNY   93  72  49 SW12      29.90S HX 100
MONTICELLO     SUNNY     90  69  50 SW9       29.92F HX  94

$$





USA.gov is the U.S. government's official web portal to all federal, state and local government web resources and services.